Location: Ch�teau-Arnoux
(44.0814°N, 6.0027°E)
Time: 18:06:24
(UTC+00:00)

Cosmos 990 Rocket - Pass Details

Date: 15 November 2019
Orbit: 746 x 770 km, 74.0° (Epoch: 13 December)

Event Time Altitude Azimuth Distance (km) Brightness Sun altitude
Rises 04:19:58 0° 193° (SSW) 3,183 7.1 -23.4°
Reaches altitude 10° 04:22:19 10° 191° (SSW) 2,266 6.4 -23.0°
Maximum altitude 04:27:26 73° 108° (ESE) 791 4.1 -22.1°
Drops below altitude 10° 04:32:37 10° 24° (NNE) 2,297 6.7 -21.2°
Sets 04:35:00 0° 23° (NNE) 3,231 7.5 -20.7°
